CW2274 Weather Reports


Display with metric or nautical units.
time (UTC)temp
F
wind
direction
speed
MPH
gust
MPH
rain 1hr
in
rain 24hr
in
rain mn
in
humidity
%
barometer
mb
20260509194520 97 309 5.0 15.0 0.00 0.00 0.00 9 1013.1
20260509194016 97 356 3.0 10.0 0.00 0.00 0.00 9 1013.2
20260509193532 100 257 3.0 11.0 0.00 0.00 0.00 10 1013.3
20260509193031 98 279 4.0 11.0 0.00 0.00 0.00 10 1013.2
20260509192527 97 267 4.0 10.0 0.00 0.00 0.00 10 1013.3
20260509192023 97 303 5.0 8.0 0.00 0.00 0.00 10 1013.4
20260509191519 96 355 3.0 10.0 0.00 0.00 0.00 10 1013.4
20260509191015 96 33 5.0 11.0 0.00 0.00 0.00 10 1013.3
20260509190531 97 350 3.0 5.0 0.00 0.00 0.00 10 1013.4
20260509190038 97 331 2.0 11.0 0.00 0.00 0.00 11 1013.5
20260509185523 98 360 4.0 11.0 0.00 0.00 0.00 10 1013.6
20260509185019 97 258 3.0 9.0 0.00 0.00 0.00 11 1013.7
20260509184515 97 271 5.0 9.0 0.00 0.00 0.00 10 1013.8
20260509184031 95 281 1.0 9.0 0.00 0.00 0.00 11 1013.8
20260509183526 97 271 4.0 8.0 0.00 0.00 0.00 10 1013.8
20260509183022 95 345 3.0 8.0 0.00 0.00 0.00 11 1013.8
20260509182518 95 306 2.0 8.0 0.00 0.00 0.00 11 1014.0
20260509182018 96 267 2.0 6.0 0.00 0.00 0.00 11 1014.1
20260509181514 93 38 4.0 6.0 0.00 0.00 0.00 11 1014.2
20260509181030 94 349 2.0 8.0 0.00 0.00 0.00 12 1014.3
20260509180526 93 350 2.0 8.0 0.00 0.00 0.00 12 1014.4
20260509180033 94 15 2.0 5.0 0.00 0.00 0.00 11 1014.4
20260509175514 92 308 1.0 6.0 0.00 0.00 0.00 12 1014.5
20260509175030 91 13 3.0 7.0 0.00 0.00 0.00 13 1014.7
20260509174526 91 44 3.0 7.0 0.00 0.00 0.00 13 1014.7
20260509174026 92 354 3.0 10.0 0.00 0.00 0.00 13 1014.7
20260509173522 93 21 4.0 10.0 0.00 0.00 0.00 13 1014.6
20260509173018 92 320 1.0 6.0 0.00 0.00 0.00 13 1014.6
20260509172513 92 305 2.0 6.0 0.00 0.00 0.00 14 1014.7
20260509172029 91 358 3.0 6.0 0.00 0.00 0.00 14 1014.7
20260509171525 90 351 0.0 9.0 0.00 0.00 0.00 15 1014.8
20260509171022 91 351 3.0 9.0 0.00 0.00 0.00 14 1014.8
20260509170522 90 332 2.0 4.0 0.00 0.00 0.00 15 1014.8
20260509170029 90 23 1.0 7.0 0.00 0.00 0.00 15 1014.7
20260509165530 89 25 1.0 7.0 0.00 0.00 0.00 16 1014.8
20260509165026 90 15 1.0 4.0 0.00 0.00 0.00 16 1014.9
20260509164522 88 15 2.0 8.0 0.00 0.00 0.00 16 1014.9
20260509164018 87 23 3.0 8.0 0.00 0.00 0.00 17 1014.9
20260509163514 88 319 1.0 3.0 0.00 0.00 0.00 18 1014.9
20260509163015 87 334 1.0 3.0 0.00 0.00 0.00 18 1015.0
20260509162531 86 46 1.0 3.0 0.00 0.00 0.00 19 1015.1
20260509162027 86 33 0.0 3.0 0.00 0.00 0.00 20 1015.1
20260509161523 85 33 2.0 4.0 0.00 0.00 0.00 19 1015.0
20260509161018 85 7 2.0 4.0 0.00 0.00 0.00 19 1015.1
20260509160514 83 102 2.0 3.0 0.00 0.00 0.00 21 1015.0
20260509160042 83 102 2.0 5.0 0.00 0.00 0.00 21 1015.0
20260509155528 84 104 1.0 4.0 0.00 0.00 0.00 22 1015.1
20260509155023 81 111 2.0 4.0 0.00 0.00 0.00 23 1015.1
20260509154519 82 112 2.0 4.0 0.00 0.00 0.00 23 1015.1
20260509154015 80 94 2.0 5.0 0.00 0.00 0.00 24 1015.2
20260509153531 80 102 2.0 5.0 0.00 0.00 0.00 24 1015.1
20260509153027 78 135 1.0 7.0 0.00 0.00 0.00 25 1015.1
20260509152524 79 92 3.0 7.0 0.00 0.00 0.00 26 1015.1
20260509152024 77 99 3.0 7.0 0.00 0.00 0.00 26 1015.1
20260509151519 77 94 3.0 5.0 0.00 0.00 0.00 26 1015.1
20260509151015 77 112 2.0 5.0 0.00 0.00 0.00 27 1015.1
20260509150531 76 119 0.0 3.0 0.00 0.00 0.00 27 1015.1
20260509150038 75 119 2.0 4.0 0.00 0.00 0.00 28 1015.1
20260509145520 74 119 2.0 4.0 0.00 0.00 0.00 28 1015.1
20260509145015 74 118 3.0 4.0 0.00 0.00 0.00 28 1015.1
20260509144515 73 137 1.0 4.0 0.00 0.00 0.00 29 1015.1
20260509144031 72 134 3.0 4.0 0.00 0.00 0.00 29 1015.1
20260509143527 72 138 3.0 4.0 0.00 0.00 0.00 30 1015.1
20260509143023 73 139 2.0 4.0 0.00 0.00 0.00 30 1015.0
20260509142519 72 135 2.0 6.0 0.00 0.00 0.00 30 1015.0
20260509142015 71 118 3.0 5.0 0.00 0.00 0.00 31 1014.9
20260509141531 71 122 3.0 6.0 0.00 0.00 0.00 31 1014.9
20260509141027 70 125 2.0 6.0 0.00 0.00 0.00 31 1014.9
20260509140527 70 111 4.0 6.0 0.00 0.00 0.00 32 1014.9
20260509140034 70 116 3.0 5.0 0.00 0.00 0.00 32 1014.9
20260509135516 69 123 2.0 5.0 0.00 0.00 0.00 33 1014.7
20260509135031 69 120 4.0 5.0 0.00 0.00 0.00 33 1014.8
20260509134527 69 123 3.0 5.0 0.00 0.00 0.00 33 1014.7
20260509134023 69 132 2.0 5.0 0.00 0.00 0.00 33 1014.7
20260509133519 68 234 2.0 4.0 0.00 0.00 0.00 34 1014.5
20260509133019 68 242 0.0 3.0 0.00 0.00 0.00 34 1014.4
20260509132515 67 242 1.0 3.0 0.00 0.00 0.00 35 1014.5
20260509132031 67 243 1.0 3.0 0.00 0.00 0.00 35 1014.5
20260509131526 67 243 0.0 2.0 0.00 0.00 0.00 35 1014.6
20260509131022 66 243 1.0 4.0 0.00 0.00 0.00 36 1014.4
20260509130518 66 244 2.0 4.0 0.00 0.00 0.00 36 1014.3
20260509130045 66 245 1.0 3.0 0.00 0.00 0.00 36 1014.3
20260509125531 66 245 1.0 4.0 0.00 0.00 0.00 36 1014.1
20260509125027 66 245 3.0 4.0 0.00 0.00 0.00 35 1014.2
20260509124524 65 246 1.0 3.0 0.00 0.00 0.00 36 1014.0
20260509124019 65 246 1.0 2.0 0.00 0.00 0.00 36 1014.1
20260509123515 65 246 1.0 2.0 0.00 0.00 0.00 36 1014.0
20260509123031 66 246 1.0 2.0 0.00 0.00 0.00 35 1014.0
20260509122527 65 247 1.0 2.0 0.00 0.00 0.00 36 1014.0
20260509122027 65 247 0.0 3.0 0.00 0.00 0.00 36 1013.9
20260509121523 66 247 1.0 3.0 0.00 0.00 0.00 35 1013.9
20260509121019 65 247 1.0 4.0 0.00 0.00 0.00 36 1013.9
20260509120515 65 248 3.0 4.0 0.00 0.00 0.00 36 1013.8
20260509120043 65 248 1.0 3.0 0.00 0.00 0.00 36 1013.8
20260509115524 65 248 1.0 3.0 0.00 0.00 0.00 36 1013.8
20260509115020 65 248 0.0 3.0 0.00 0.00 0.00 36 1013.7
20260509114520 65 248 2.0 3.0 0.00 0.00 0.00 36 1013.7
20260509114016 65 249 1.0 2.0 0.00 0.00 0.00 36 1013.8
20260509113512 65 249 0.0 0.0 0.00 0.00 0.00 37 1013.7
20260509113028 64 249 0.0 0.0 0.00 0.00 0.00 37 1013.7
20260509112523 64 249 0.0 0.0 0.00 0.00 0.00 36 1013.7
20260509112019 65 249 0.0 0.0 0.00 0.00 0.00 36 1013.5
20260509111515 65 249 0.0 0.0 0.00 0.00 0.00 36 1013.6
20260509111030 64 249 0.0 0.0 0.00 0.00 0.00 37 1013.5
20260509110527 65 249 0.0 1.0 0.00 0.00 0.00 36 1013.5
20260509110034 65 249 0.0 1.0 0.00 0.00 0.00 36 1013.4
20260509105516 65 249 0.0 1.0 0.00 0.00 0.00 34 1013.4
20260509105012 66 249 0.0 2.0 0.00 0.00 0.00 34 1013.4
20260509104527 65 249 0.0 1.0 0.00 0.00 0.00 35 1013.5
20260509104023 64 249 0.0 1.0 0.00 0.00 0.00 37 1013.4
20260509103519 65 249 0.0 0.0 0.00 0.00 0.00 36 1013.4
20260509103020 66 249 0.0 1.0 0.00 0.00 0.00 34 1013.3
20260509102515 66 249 0.0 2.0 0.00 0.00 0.00 34 1013.3
20260509102031 67 249 1.0 2.0 0.00 0.00 0.00 33 1013.4
20260509101527 67 249 1.0 2.0 0.00 0.00 0.00 33 1013.4
20260509101023 66 249 1.0 2.0 0.00 0.00 0.00 33 1013.4
20260509100519 66 249 1.0 3.0 0.00 0.00 0.00 33 1013.4
20260509100026 68 249 1.0 3.0 0.00 0.00 0.00 32 1013.4
20260509095511 69 249 0.0 6.0 0.00 0.00 0.00 31 1013.3
20260509095027 71 249 1.0 6.0 0.00 0.00 0.00 29 1013.4
20260509094523 70 266 3.0 6.0 0.00 0.00 0.00 29 1013.3
20260509094018 69 275 1.0 2.0 0.00 0.00 0.00 31 1013.3
20260509093513 71 275 1.0 2.0 0.00 0.00 0.00 29 1013.3
20260509093029 70 275 1.0 2.0 0.00 0.00 0.00 29 1013.3
20260509092525 71 275 1.0 3.0 0.00 0.00 0.00 28 1013.3
20260509092025 72 275 1.0 3.0 0.00 0.00 0.00 27 1013.3
20260509091522 72 275 2.0 3.0 0.00 0.00 0.00 27 1013.3
20260509091017 72 275 1.0 2.0 0.00 0.00 0.00 27 1013.4
20260509090513 72 275 1.0 4.0 0.00 0.00 0.00 27 1013.5
20260509090041 73 275 1.0 4.0 0.00 0.00 0.00 27 1013.4
20260509085523 72 277 2.0 4.0 0.00 0.00 0.00 28 1013.5
20260509085019 70 277 2.0 3.0 0.00 0.00 0.00 30 1013.5
20260509084519 70 277 2.0 3.0 0.00 0.00 0.00 30 1013.4
20260509084014 71 277 2.0 3.0 0.00 0.00 0.00 29 1013.5
20260509083530 73 277 2.0 3.0 0.00 0.00 0.00 26 1013.3
20260509083026 73 277 1.0 3.0 0.00 0.00 0.00 27 1013.5
20260509082522 70 277 1.0 3.0 0.00 0.00 0.00 29 1013.5
20260509082019 71 277 2.0 3.0 0.00 0.00 0.00 29 1013.5
20260509081515 71 277 2.0 2.0 0.00 0.00 0.00 29 1013.4
20260509081014 71 277 1.0 2.0 0.00 0.00 0.00 28 1013.4
20260509080530 72 277 1.0 2.0 0.00 0.00 0.00 27 1013.4
20260509080037 73 277 0.0 1.0 0.00 0.00 0.00 26 1013.4
20260509075519 72 277 0.0 3.0 0.00 0.00 0.00 26 1013.4
20260509075015 72 277 1.0 3.0 0.00 0.00 0.00 26 1013.5
20260509074531 73 277 1.0 2.0 0.00 0.00 0.00 26 1013.4
20260509074027 72 277 0.0 2.0 0.00 0.00 0.00 27 1013.4
20260509073522 72 277 1.0 3.0 0.00 0.00 0.00 26 1013.4
20260509073022 73 277 1.0 3.0 0.00 0.00 0.00 25 1013.4
20260509072518 74 277 0.0 2.0 0.00 0.00 0.00 23 1013.5
20260509072014 74 277 1.0 2.0 0.00 0.00 0.00 23 1013.4
20260509071530 74 277 0.0 1.0 0.00 0.00 0.00 23 1013.5
20260509071026 74 277 0.0 2.0 0.00 0.00 0.00 23 1013.6
20260509070522 76 277 1.0 2.0 0.00 0.00 0.00 22 1013.4
20260509070030 76 277 1.0 2.0 0.00 0.00 0.00 21 1013.5
20260509065515 76 277 1.0 2.0 0.00 0.00 0.00 20 1013.5
20260509065030 77 277 2.0 2.0 0.00 0.00 0.00 19 1013.4
20260509064526 79 277 1.0 4.0 0.00 0.00 0.00 18 1013.4
20260509064022 78 277 2.0 4.0 0.00 0.00 0.00 18 1013.5
20260509063518 77 270 2.0 4.0 0.00 0.00 0.00 20 1013.6
20260509063014 77 270 2.0 4.0 0.00 0.00 0.00 20 1013.4
20260509062529 76 271 2.0 4.0 0.00 0.00 0.00 20 1013.5
20260509062029 74 306 3.0 4.0 0.00 0.00 0.00 23 1013.4
20260509061524 75 307 2.0 3.0 0.00 0.00 0.00 23 1013.4
20260509061020 76 307 2.0 3.0 0.00 0.00 0.00 21 1013.3
20260509060516 76 307 2.0 3.0 0.00 0.00 0.00 21 1013.3
20260509060043 76 307 2.0 3.0 0.00 0.00 0.00 21 1013.4
20260509055524 76 307 2.0 3.0 0.00 0.00 0.00 21 1013.3
20260509055020 76 307 2.0 3.0 0.00 0.00 0.00 21 1013.3
20260509054520 76 307 2.0 4.0 0.00 0.00 0.00 20 1013.2
20260509054016 76 307 2.0 4.0 0.00 0.00 0.00 21 1013.2
20260509053531 76 307 3.0 3.0 0.00 0.00 0.00 20 1013.3
20260509053027 77 308 2.0 4.0 0.00 0.00 0.00 20 1013.1
20260509052523 77 308 2.0 4.0 0.00 0.00 0.00 21 1013.2
20260509052019 78 308 3.0 4.0 0.00 0.00 0.00 19 1013.2
20260509051515 76 309 2.0 4.0 0.00 0.00 0.00 21 1013.3
20260509051015 76 310 2.0 3.0 0.00 0.00 0.00 22 1013.2
20260509050530 76 310 2.0 3.0 0.00 0.00 0.00 21 1013.2
20260509050039 76 310 2.0 3.0 0.00 0.00 0.00 21 1013.1
20260509045520 77 310 2.0 3.0 0.00 0.00 0.00 21 1013.2
20260509045016 77 310 2.0 3.0 0.00 0.00 0.00 21 1013.1
20260509044532 77 310 2.0 3.0 0.00 0.00 0.00 20 1012.9
20260509044028 79 310 1.0 3.0 0.00 0.00 0.00 19 1013.0
20260509043524 79 310 1.0 3.0 0.00 0.00 0.00 18 1012.8
20260509043023 80 310 1.0 3.0 0.00 0.00 0.00 17 1012.9
20260509042519 80 310 1.0 3.0 0.00 0.00 0.00 18 1012.8
20260509042016 79 310 2.0 3.0 0.00 0.00 0.00 18 1012.8
20260509041532 79 310 2.0 3.0 0.00 0.00 0.00 18 1012.7
20260509041027 80 310 2.0 3.0 0.00 0.00 0.00 18 1012.6
20260509040523 80 310 2.0 3.0 0.00 0.00 0.00 18 1012.5
20260509040032 80 310 2.0 3.0 0.00 0.00 0.00 17 1012.5
20260509035517 80 310 2.0 3.0 0.00 0.00 0.00 17 1012.5
20260509035033 80 310 2.0 3.0 0.00 0.00 0.00 17 1012.4
20260509034529 80 310 2.0 3.0 0.00 0.00 0.00 17 1012.4
20260509034024 80 310 2.0 3.0 0.00 0.00 0.00 16 1012.3
20260509033520 81 310 2.0 3.0 0.00 0.00 0.00 17 1012.4
20260509033016 81 310 2.0 3.0 0.00 0.00 0.00 16 1012.4
20260509032531 81 310 2.0 3.0 0.00 0.00 0.00 16 1012.2
20260509032031 81 310 2.0 4.0 0.00 0.00 0.00 16 1012.2
20260509031528 82 310 2.0 4.0 0.00 0.00 0.00 16 1012.2
20260509031024 82 310 2.0 3.0 0.00 0.00 0.00 16 1012.2
20260509030520 82 310 2.0 3.0 0.00 0.00 0.00 16 1012.1
20260509030047 82 310 2.0 3.0 0.00 0.00 0.00 16 1012.0
20260509025528 83 310 1.0 3.0 0.00 0.00 0.00 15 1011.9
20260509025024 83 310 1.0 3.0 0.00 0.00 0.00 14 1011.9
20260509024524 84 310 2.0 3.0 0.00 0.00 0.00 14 1011.8
20260509024020 85 310 2.0 4.0 0.00 0.00 0.00 13 1011.8
20260509023516 86 310 2.0 4.0 0.00 0.00 0.00 13 1011.7
20260509023031 86 310 2.0 4.0 0.00 0.00 0.00 13 1011.7
20260509022527 87 311 1.0 4.0 0.00 0.00 0.00 13 1011.6
20260509022023 87 311 1.0 2.0 0.00 0.00 0.00 12 1011.4
20260509021519 87 312 0.0 3.0 0.00 0.00 0.00 13 1011.4
20260509021019 88 312 1.0 4.0 0.00 0.00 0.00 12 1011.4
20260509020515 88 302 2.0 4.0 0.00 0.00 0.00 12 1011.4
20260509020042 89 290 2.0 4.0 0.00 0.00 0.00 12 1011.3
20260509015523 89 360 2.0 4.0 0.00 0.00 0.00 12 1011.3
20260509015019 89 321 1.0 5.0 0.00 0.00 0.00 11 1011.3
20260509014515 89 342 2.0 7.0 0.00 0.00 0.00 11 1011.2
20260509014031 90 304 3.0 7.0 0.00 0.00 0.00 11 1011.1
20260509013526 90 342 3.0 10.0 0.00 0.00 0.00 11 1011.1
20260509013026 90 317 3.0 10.0 0.00 0.00 0.00 11 1011.0
20260509012522 90 316 3.0 5.0 0.00 0.00 0.00 11 1011.0
20260509012019 91 306 2.0 8.0 0.00 0.00 0.00 11 1011.0
20260509011515 91 323 3.0 8.0 0.00 0.00 0.00 11 1011.0
20260509011031 91 292 1.0 8.0 0.00 0.00 0.00 10 1011.0
20260509010526 91 336 2.0 8.0 0.00 0.00 0.00 10 1011.1
20260509010034 92 310 3.0 7.0 0.00 0.00 0.00 10 1011.2
20260509005519 91 355 3.0 7.0 0.00 0.00 0.00 10 1011.1
20260509005016 92 344 3.0 8.0 0.00 0.00 0.00 10 1011.1
20260509004533 92 324 2.0 8.0 0.00 0.00 0.00 10 1011.1
20260509004029 93 322 2.0 10.0 0.00 0.00 0.00 10 1011.1
20260509003524 93 315 5.0 10.0 0.00 0.00 0.00 10 1011.1
20260509003019 92 306 5.0 9.0 0.00 0.00 0.00 10 1011.1
20260509002515 92 311 4.0 12.0 0.00 0.00 0.00 10 1011.0
20260509002015 93 344 3.0 9.0 0.00 0.00 0.00 10 1011.1
20260509001531 93 339 2.0 9.0 0.00 0.00 0.00 10 1011.1
20260509001026 93 292 3.0 12.0 0.00 0.00 0.00 10 1011.2
20260509000522 93 11 4.0 10.0 0.00 0.00 0.00 10 1011.3
20260509000029 93 294 3.0 8.0 0.00 0.00 0.00 10 1011.2
20260508235530 93 343 3.0 10.0 0.00 0.00 0.00 10 1011.4
20260508235026 93 327 4.0 10.0 0.00 0.00 0.00 10 1011.4
20260508234525 93 280 3.0 10.0 0.00 0.00 0.00 9 1011.4
20260508234021 94 356 4.0 11.0 0.00 0.00 0.00 9 1011.4
20260508233517 94 291 3.0 11.0 0.00 0.00 0.00 9 1011.4
20260508233013 93 20 4.0 9.0 0.00 0.00 0.00 10 1011.4
20260508232529 94 339 3.0 10.0 0.00 0.00 0.00 9 1011.5
20260508232023 95 307 3.0 13.0 0.00 0.00 0.00 10 1011.5
20260508231519 94 290 3.0 13.0 0.00 0.00 0.00 9 1011.6
20260508231019 94 285 6.0 12.0 0.00 0.00 0.00 10 1011.6
20260508230516 94 354 3.0 9.0 0.00 0.00 0.00 11 1011.5
20260508230044 95 360 2.0 15.0 0.00 0.00 0.00 10 1011.7
20260508225525 95 312 4.0 15.0 0.00 0.00 0.00 10 1011.8
20260508225022 95 271 4.0 11.0 0.00 0.00 0.00 9 1011.8
20260508224518 95 263 4.0 10.0 0.00 0.00 0.00 9 1011.8
20260508224014 95 335 3.0 9.0 0.00 0.00 0.00 10 1011.9
20260508223514 95 299 5.0 10.0 0.00 0.00 0.00 10 1012.0
20260508223029 96 327 2.0 14.0 0.00 0.00 0.00 10 1012.0
20260508222525 96 279 6.0 14.0 0.00 0.00 0.00 10 1011.9
20260508222020 96 265 7.0 11.0 0.00 0.00 0.00 9 1012.0
20260508221516 94 286 4.0 16.0 0.00 0.00 0.00 11 1012.2
20260508221031 95 290 4.0 16.0 0.00 0.00 0.00 10 1012.2
20260508220526 96 289 3.0 8.0 0.00 0.00 0.00 11 1012.3
20260508220032 94 321 3.0 12.0 0.00 0.00 0.00 11 1012.4
20260508215516 95 298 6.0 13.0 0.00 0.00 0.00 11 1012.5
20260508215032 96 289 6.0 13.0 0.00 0.00 0.00 10 1012.5
20260508214527 95 302 6.0 13.0 0.00 0.00 0.00 11 1012.6
20260508214022 95 281 7.0 15.0 0.00 0.00 0.00 10 1012.9
20260508213517 95 263 5.0 12.0 0.00 0.00 0.00 11 1012.9
20260508213032 93 312 2.0 11.0 0.00 0.00 0.00 12 1012.9
20260508212528 95 325 3.0 11.0 0.00 0.00 0.00 11 1013.0
20260508212028 95 294 2.0 10.0 0.00 0.00 0.00 11 1013.0
20260508211524 94 294 3.0 10.0 0.00 0.00 0.00 12 1013.1
20260508211020 93 338 5.0 15.0 0.00 0.00 0.00 12 1013.2
20260508210516 95 4 5.0 12.0 0.00 0.00 0.00 11 1013.1
20260508205531 95 273 6.0 12.0 0.00 0.00 0.00 12 1013.2
20260508205027 96 286 4.0 9.0 0.00 0.00 0.00 10 1013.3
20260508204527 94 287 5.0 11.0 0.00 0.00 0.00 12 1013.4
20260508204022 94 288 4.0 11.0 0.00 0.00 0.00 12 1013.5
20260508203517 94 282 4.0 10.0 0.00 0.00 0.00 12 1013.5
20260508203013 92 9 3.0 10.0 0.00 0.00 0.00 13 1013.5
20260508202529 94 291 4.0 10.0 0.00 0.00 0.00 13 1013.6
20260508202026 95 357 4.0 11.0 0.00 0.00 0.00 12 1013.7
20260508201521 94 287 5.0 11.0 0.00 0.00 0.00 12 1013.6
20260508201020 93 258 4.0 11.0 0.00 0.00 0.00 13 1013.6
20260508200516 93 308 3.0 14.0 0.00 0.00 0.00 13 1013.9
20260508200044 93 354 5.0 14.0 0.00 0.00 0.00 12 1013.9
20260508195526 93 298 5.0 11.0 0.00 0.00 0.00 12 1014.1
20260508195022 93 240 5.0 11.0 0.00 0.00 0.00 12 1014.0